Home   Weather   Groton   Past weeks
Flag for USA

Past Weather in Groton, Connecticut, USA — Yesterday and Last 2 Weeks

Now
45 °F

Overcast.


Feels Like: 39 °F
Forecast: 46 / 40 °F
Wind: 14 mph from East

Location: Groton / New London Airport

Current Time: Mar 21, 2019 at 4:31:19 pm

Latest Report: Mar 21, 2019 at 3:56 pm


Visibility: 10 mi

Pressure: 30.03 "Hg

Humidity: 68%

Dew Point: 35 °F

Location of GrotonLocation

Past Weather in Groton — Graph

°F

Groton Temperature Yesterday

Maximum temperature yesterday: 46 °F (at 12:56 pm)
Minimum temperature yesterday: 24 °F (at 6:56 am)
Average temperature yesterday: 37 °F

High & Low Weather Summary for the Past Weeks

 TemperatureHumidityPressure
High54 °F (Mar 15, 4:31 pm)100% (Mar 10, 12:09 pm)30.43 "Hg (Mar 10, 12:09 pm)
Low13 °F (Mar 7, 4:56 am)28% (Mar 16, 2:56 pm)29.65 "Hg (Mar 15, 11:56 pm)
Average37 °F69%30.15 "Hg
* Reported Mar 6 1:56 pm — Mar 21 2:56 pm, Groton. Weather by CustomWeather, © 2019

Note: Actual official high and low records may vary slightly from our data, if they occured in-between our weather recording intervals... More about our weather records

Advertising

Groton Weather History for the Previous 24 Hours

Scroll right to see more
 ConditionsComfort  
Time TempWeatherWind HumidityBarometerVisibility
2:56 pm
Thu, Mar 21
45 °FOvercast.12 mph71%30.06 "Hg10 mi
1:56 pm46 °FOvercast.14 mph71%30.09 "Hg10 mi
12:56 pm46 °FOvercast.13 mph73%30.11 "Hg10 mi
11:56 am46 °FOvercast.14 mph73%30.14 "Hg10 mi
10:56 am44 °FOvercast.13 mph76%30.17 "Hg10 mi
9:56 am44 °FOvercast.13 mph79%30.18 "Hg10 mi
8:56 am42 °FOvercast.13 mph82%30.19 "Hg10 mi
7:56 am42 °FOvercast.13 mph79%30.20 "Hg10 mi
6:56 am41 °FMostly cloudy.12 mph82%30.21 "Hg10 mi
5:56 am40 °FPassing clouds.10 mph86%30.22 "Hg10 mi
4:56 am41 °FPassing clouds.7 mph80%30.23 "Hg10 mi
3:56 am40 °FPassing clouds.8 mph80%30.24 "Hg10 mi
2:56 am41 °FClear.10 mph74%30.27 "Hg10 mi
1:56 am41 °FClear.9 mph76%30.29 "Hg10 mi
12:56 am40 °FClear.10 mph83%30.29 "Hg10 mi
11:56 pm
Wed, Mar 20
41 °FClear.10 mph82%30.31 "Hg10 mi
10:56 pm41 °FClear.8 mph86%30.32 "Hg10 mi
9:56 pm41 °FClear.9 mph86%30.32 "Hg10 mi
8:56 pm40 °FClear.9 mph89%30.33 "Hg10 mi
7:56 pm41 °FClear.10 mph86%30.32 "Hg10 mi
6:56 pm41 °FSunny.14 mph82%30.32 "Hg10 mi
5:56 pm43 °FSunny.14 mph82%30.32 "Hg10 mi
4:56 pm45 °FSunny.14 mph68%30.32 "Hg10 mi
Weather by CustomWeather, © 2019

See weather overview